Regional Weather Roundup
Issued by NWS Burlington, VT

Home | Current Version | Previous Version | Text Only | Print | Product List | Glossary On
Versions: 1 2 3 4 5 6 7 8 9 10 11 12 13 14 15 16 17 18 19 20 21 22 23 24 25 26 27 28 29 30 31 32 33 34 35 36 37 38 39 40 41 42 43 44 45 46 47 48 49 50
000
ASUS41 KBTV 161030
RWRBTV
VERMONT REGIONAL WEATHER ROUNDUP
NATIONAL WEATHER SERVICE BURLINGTON VT
600 AM EDT TUE SEP 16 2014

NOTE: "FAIR" INDICATES FEW OR NO CLOUDS BELOW 12,000 FEET WITH NO
SIGNIFICANT WEATHER AND/OR OBSTRUCTIONS TO VISIBILITY.

* THESE REPORTS ARE NOT UNDER NWS QUALITY CONTROL AND/OR DO NOT
  REPORT WEATHER SUCH AS PRECIPITATION AND FOG.

VTZ001>019-161100-
_____VERMONT_____


CITY           SKY/WX    TMP DP  RH WIND       PRES   REMARKS
BURLINGTON     LGT RAIN  52  49  89 S6        30.01F
MONTPELIER     LGT RAIN  48  47  96 CALM      30.06R
MORRISVILLE    LGT RAIN  49  47  93 CALM      30.03F
ST. JOHNSBURY*   N/A     47  47 100 MISG      30.02R
MIDDLEBURY*    LGT RAIN  51  51  99 SE5       30.02S
RUTLAND*       CLOUDY    50  46  87 S3        30.03F
SPRINGFIELD    LGT RAIN  49  49 100 CALM      30.06S
HIGHGATE*      DRIZZLE   51  49  93 S5        29.99F
NEWPORT*       DRIZZLE   48  46  94 S5        30.01F
BENNINGTON     LGT RAIN  50  48  93 CALM      30.04S
SUTTON*          N/A     46 N/A N/A MISG        N/A
GALLUP MILLS*    N/A     45 N/A N/A MISG        N/A
UNION VILLAGE*   N/A     48 N/A N/A MISG        N/A
MT. MANSFIELD*   N/A     39 N/A N/A W15G26      N/A

_____LAKE CHAMPLAIN_____


CITY           SKY/WX    TMP DP  RH WIND       PRES   REMARKS
BURTON ISLAND*   N/A     54  50  87 SE13        N/A
COLCHESTER RF*   N/A     55  52  88 S16         N/A
DIAMOND ISL*     N/A     52  50  93 S2          N/A

$$

NYZ007-026>031-035-052-083-161100-
_____NORTHERN NEW YORK_____


CITY           SKY/WX    TMP DP  RH WIND       PRES   REMARKS
PLATTSBURGH    LGT RAIN  51  51 100 CALM      29.99F
SARANAC LAKE   LGT RAIN  48  47  96 S3        29.98F
MASSENA        CLOUDY    52  52 100 SW3       29.99S
OGDENSBURG*    PTSUNNY   54  52  94 CALM      29.99S FOG
PARISHVILLE*     N/A     52 N/A N/A S5          N/A
WATERTOWN      CLOUDY    55  50  83 S5        30.00R
FT DRUM        PTSUNNY   52  52 100 S5        30.00R
ALBANY         RAIN      54  51  90 CALM      30.03F FOG
GLENS FALLS    LGT RAIN  51  49  92 S3        30.03F

$$
NHZ002-005-011-161100-
_____NEW HAMPSHIRE_____


CITY           SKY/WX    TMP DP  RH WIND       PRES   REMARKS
LEBANON        LGT RAIN  50  48  93 CALM      30.04R
KEENE          CLOUDY    50  43  76 CALM      30.05F
MT WASHINGTON  LGTSLEET  32  32 100 W28         N/A  VSB 1/16
PLYMOUTH       LGT RAIN  47  47 100 CALM      30.06R
WHITEFIELD     CLOUDY    47  45  93 CALM      30.03S

$$

_____REGIONAL QUEBEC LOCATIONS_____


CITY           SKY/WX    TMP DP  RH WIND       PRES   REMARKS
MONTREAL       PTSUNNY   54  50  87 SW6       29.98S
QUEBEC CITY    LGT RAIN  52  50  93 W7        29.95R FOG
SHERBROOKE     LGT RAIN  48  46  93 VRB2      29.99R

_____REGIONAL ONTARIO LOCATIONS_____


CITY           SKY/WX    TMP DP  RH WIND       PRES   REMARKS
OTTAWA         MOSUNNY   48  48 100 W6        29.98S

______KEY______
VSB  - VISIBILITY IN MILES
WCI  - WIND CHILL INDEX
HX   - HEAT INDEX
$$



USA.gov is the U.S. government's official web portal to all federal, state and local government web resources and services.